This is the latest recevied weather packets stored in our database for station/object GBTWP-2. If no packets are shown the sender has not sent any weather packets the latest 1 day(s).
| Time | Temp. | Humidity | Pressure | Rain* | Wind** | Luminosity | Snow |
|---|---|---|---|---|---|---|---|
| 1777983001 | 10° C | 72% | 1006.8 hPa | 0 mm | 0.45 m/s, 6° | 54 W/m² | - |
| 1777982401 | 10° C | 73% | 1007 hPa | 0 mm | 0.45 m/s, 34° | 37 W/m² | - |
| 1777981802 | 10.56° C | 75% | 1006.4 hPa | 0 mm | 0.45 m/s, 74° | 47 W/m² | - |
| 1777981501 | 10° C | 75% | 1006.9 hPa | 0 mm | 0.45 m/s, 331° | 48 W/m² | - |
| 1777981202 | 10° C | 77% | 1006.8 hPa | 0 mm | 0.45 m/s, 337° | 43 W/m² | - |
| 1777980902 | 10° C | 78% | 1006.7 hPa | 0 mm | 0.45 m/s, 348° | 32 W/m² | - |
| 1777980602 | 10° C | 78% | 1006.2 hPa | 0 mm | 0.45 m/s, 5° | 21 W/m² | - |
| 1777980302 | 10° C | 79% | 1006.1 hPa | 0 mm | 0 m/s | 18 W/m² | - |
| 1777979402 | 10.56° C | 81% | 1005.5 hPa | 0 mm | 0 m/s | 15 W/m² | - |
| 1777979102 | 10.56° C | 81% | 1005.4 hPa | 0 mm | 0 m/s | 15 W/m² | - |
| 1777978501 | 11.11° C | 80% | 1005.3 hPa | 0 mm | 0 m/s | 11 W/m² | - |
| 1777978202 | 11.67° C | 79% | 1005.3 hPa | 0 mm | 0.45 m/s, 3° | 8 W/m² | - |
| 1777977901 | 12.78° C | 83% | 1005.3 hPa | 0 mm | 0.45 m/s, 325° | 6 W/m² | - |
| 1777977602 | 12.78° C | 85% | 1004.9 hPa | 0 mm | 0 m/s | 3 W/m² | - |
| 1777977302 | 12.78° C | 84% | 1004.6 hPa | 0 mm | 0.45 m/s, 316° | 3 W/m² | - |
| 1777976702 | 12.78° C | 84% | 1004.7 hPa | 0 mm | 0 m/s | 1 W/m² | - |
| 1777976102 | 12.78° C | 84% | 1004.1 hPa | 0 mm | 0 m/s | 0 W/m² | - |
| 1777975802 | 12.78° C | 84% | 1004 hPa | 0 mm | 0.45 m/s, 258° | 0 W/m² | - |
| 1777974902 | 13.33° C | 84% | 1003.5 hPa | 0 mm | 0.89 m/s, 212° | 0 W/m² | - |
| 1777974001 | 13.33° C | 84% | 1003.7 hPa | 0 mm | 0.89 m/s, 223° | 0 W/m² | - |
| 1777973702 | 13.89° C | 83% | 1003.5 hPa | 0 mm | 0.45 m/s, 249° | 0 W/m² | - |
| 1777973401 | 13.89° C | 83% | 1003.5 hPa | 0 mm | 1.34 m/s, 174° | 0 W/m² | - |
| 1777973102 | 13.89° C | 83% | 1003.3 hPa | 0 mm | 0.89 m/s, 216° | 0 W/m² | - |
| 1777972802 | 13.89° C | 82% | 1003.5 hPa | 0 mm | 0.89 m/s, 175° | 0 W/m² | - |
| 1777972202 | 14.44° C | 81% | 1003.8 hPa | 0 mm | 0.89 m/s, 229° | 0 W/m² | - |
* Rain latest hour (hover to see other rain measurements)
** Current wind speed in m/s (hover to see current wind gust speed)